Regional Weather Roundup
Issued by NWS

Home | Current Version | Previous Version | Graphics & Text | Print | Product List | Glossary On
Versions: 1 2 3 4 5 6 7 8 9 10 11 12 13 14 15 16 17 18 19 20 21 22 23 24 25 26 27 28 29 30 31 32 33 34 35 36 37 38 39 40 41 42 43 44 45 46 47 48 49 50
000
ASUS43 KMPX 120101
RWRMN
WEATHER ROUNDUP FOR MINNESOTA
NATIONAL WEATHER SERVICE TWIN CITIES/CHANHASSEN MN
700 PM CST THU FEB 11 2016


NOTE: "FAIR" INDICATES FEW OR NO CLOUDS BELOW 12,000 FEET WITH NO
SIGNIFICANT WEATHER AND/OR OBSTRUCTIONS TO VISIBILITY. N/A MEANS
CURRENT SKY AND/OR WEATHER CONDITIONS ARE NOT AVAILABLE.

MNZ060>063-068>070-120200-
   Twin Cities Metro

CITY           SKY/WX    TMP DP  RH WIND       PRES   REMARKS
TWIN CITIES    FLURRIES  16   6  65 SW5       30.25R WCI   9
ST PAUL        CLOUDY    16   5  62 W5        30.27R WCI   9
CRYSTAL        FLURRIES  16   7  67 SW8       30.24R WCI   5
BLAINE         CLOUDY    18   9  68 SW3       30.24R
LAKEVILLE      LGT SNOW  12   7  79 SW5       30.24S WCI   4
EDEN PRAIRIE   LGT SNOW  15   6  67 SW5       30.23S WCI   8
SOUTH ST PAUL  FLURRIES  16   6  63 W3        30.25S
LAKE ELMO      MOCLDY    18   5  57 W5        30.24S WCI  11
$$
MNZ001>005-007-008-013>017-022>024-027-028-120200-
   Northwest Minnesota

CITY           SKY/WX    TMP DP  RH WIND       PRES   REMARKS
BEMIDJI        CLOUDY     9   1  67 W10       30.18R WCI  -5
HALLOCK        FLURRIES   9   5  85 NW10      30.28R WCI  -6
ROSEAU         CLOUDY    10   3  72 NW9       30.22R WCI  -2
WARROAD        CLOUDY    10   3  72 W8        30.20R WCI  -1
THIEF RVR FALL CLOUDY    10   9  92 W7        30.24R WCI   0
CROOKSTON      FLURRIES  10   9  92 N6        30.27S WCI   1
FOSSTON        FLURRIES   7   1  78 W6        30.22R WCI  -3
DETROIT LAKES  FLURRIES  14   5  67 NW7       30.21S WCI   4
MOORHEAD       MIX PCPN  12   5  73 NW7       30.27R WCI   2
PARK RAPIDS    CLOUDY    12   1  61 NW9       30.17R WCI   0
MAHNOMEN       CLOUDY    10   1  68 NW7       30.22R WCI  -1
$$
MNZ006-009>011-018-025>026-120200-
   North Central Minnesota

CITY           SKY/WX    TMP DP  RH WIND       PRES   REMARKS
BAUDETTE       CLOUDY    10   1  67 W10       30.16R WCI  -4
FLAG ISLAND    CLEAR      7   0  72 NW18G24   30.18R WCI -12
INTL FALLS     CLOUDY     9  -2  61 W8        30.13R WCI  -3
WASKISH        CLOUDY     9   3  78 SW9       30.18R WCI  -5
LONGVILLE      CLOUDY    12   1  62 CALM      30.17S
GRAND RAPIDS   CLOUDY    10  -2  56 W6        30.14F WCI   1
CRANE LAKE     CLOUDY     9  -6  52 W2        30.14R
ORR            CLOUDY     9  -4  56 W7        30.10R WCI  -3
COOK           CLOUDY     9  -2  61 W9        30.12S WCI  -5
WALKER         CLOUDY    12  -1  56 NW5       30.17S WCI   4
$$
MNZ012-019>021-037-120200-
   Northeast Minnesota

CITY           SKY/WX    TMP DP  RH WIND       PRES   REMARKS
DULUTH         CLOUDY    11  -2  56 W12       30.12R WCI  -3
ELY            MOCLDY     7  -2  66 W7        30.09R WCI  -5
HIBBING        CLOUDY     9  -6  50 W8        30.12S WCI  -3
EVELETH        CLOUDY    12  -4  48 W8        30.12S WCI   1
DULUTH HARBOR  CLOUDY    16   0  48 W14       30.20S WCI   1
TWO HARBORS    CLOUDY    14  -2  48 W6        30.11S WCI   5
SILVER BAY     MOCLDY    10  -6  48 CALM      30.10S
GRAND MARAIS     N/A     10   0  63 W9        30.11F WCI  -3
G MARAIS ARPRT CLEAR      1  -6  71 W8        30.00S WCI -12
$$
MNZ029>031-032-039>041-046>048-054>057-064-120200-
   West Central Minnesota

CITY           SKY/WX    TMP DP  RH WIND       PRES   REMARKS
FERGUS FALLS   FLURRIES  12   9  85 N3        30.26R
WHEATON        FLURRIES  16  12  86 CALM      30.26R
MORRIS         FLURRIES  16   9  73 CALM      30.21R
ALEXANDRIA     CLOUDY    13   9  84 NW3       30.19S FOG
ELBOW LAKE     LGT SNOW  13  10  90 W3        30.22R
WADENA         CLOUDY    12   5  73 NW6       30.19S WCI   3
GLENWOOD       LGT SNOW  12   9  85 CALM      30.20S
APPLETON       FLURRIES  16  10  79 CALM      30.22F
BENSON         FLURRIES  16  10  79 CALM      30.22S
ORTONVILLE     CLOUDY    14  10  85 CALM      30.21S
MADISON        CLOUDY    10   9  92 CALM      30.22S FOG
WILLMAR        FLURRIES  18  12  79 W3        30.23S
$$
MNZ033>034-036-042>043-049>051-058-059-120200-
   Central Minnesota

CITY           SKY/WX    TMP DP  RH WIND       PRES   REMARKS
ST CLOUD       LGT SNOW  13  10  88 S3        30.22R FOG
SAUK CENTRE    LGT SNOW  12  10  89 CALM      30.21S
PAYNESVILLE    CLOUDY    15   8  72 SW3       30.22R
AITKIN         CLOUDY    16   0  48 W3        30.16F
PINE RIVER     CLOUDY    12   1  62 CALM      30.21R
BRAINERD       CLOUDY    13   4  67 W6        30.19S WCI   4
STAPLES        CLOUDY    12   7  79 W6        30.19S WCI   3
LONG PRAIRIE   LGT SNOW  12   9  85 CALM      30.20R
LITTLE FALLS   CLOUDY    14  10  85 CALM      30.21S
LITCHFIELD     CLOUDY    16   9  73 CALM      30.23R
BUFFALO        LGT SNOW  14   9  81 CALM      30.24S
MAPLE LAKE     LGT SNOW  15  11  83 CALM      30.24R
$$
MNZ037-044-045-052-053-120200-
   East Central Minnesota

CITY           SKY/WX    TMP DP  RH WIND       PRES   REMARKS
PRINCETON      LGT SNOW  16  10  79 CALM      30.22S
MORA           CLOUDY    14   5  67 W5        30.23S WCI   6
CAMBRIDGE      FLURRIES  16   7  67 CALM      30.22R
RUSH CITY      CLOUDY    14   4  64 SW3       30.23S
MOOSE LAKE     CLOUDY    14   1  57 W7        30.17S WCI   4
HINCKLEY       CLOUDY    16   5  62 W6        30.20S WCI   7
CLOQUET        CLOUDY    12  -2  52 W8        30.14S WCI   1
MCGREGOR       CLOUDY    14   1  57 W3        30.17F
$$
MNZ071>073-080-081-089-090-097-098-120200-
   Southwest Minnesota

CITY           SKY/WX    TMP DP  RH WIND       PRES   REMARKS
MONTEVIDEO     CLOUDY    14   9  79 CALM      30.24R
GRANITE FALLS  CLOUDY    17  15  89 CALM      30.24R
CANBY          CLOUDY    12  10  91 CALM      30.23R
MARSHALL       CLOUDY    13  10  88 SW6       30.22R WCI   4
REDWOOD FALLS  CLOUDY    16  12  84 SW7       30.23R WCI   6
OLIVIA         CLOUDY    18  12  79 SW7       30.22R WCI   8
PIPESTONE      MIX PCPN  14   7  73 CALM      30.17R
WINDOM         FLURRIES  12   9  85 S5        30.19S WCI   4
WORTHINGTON    CLOUDY    12   9  85 S7        30.20R WCI   2
JACKSON        FLURRIES  12   9  85 S9        30.20R WCI   0
TRACY          CLEAR     14  11  88 CALM      30.21R
SLAYTON        FLURRIES  11  10  95 SW5       30.18S WCI   3
$$
MNZ065>067-074>077-082>085-091>093-120200-
   South Central Minnesota

CITY           SKY/WX    TMP DP  RH WIND       PRES   REMARKS
MANKATO        CLOUDY    16   3  57 S7        30.23S WCI   6
NEW ULM        CLOUDY    12   7  79 CALM      30.23S
ST JAMES       LGT SNOW  12  10  92 CALM      30.24R
FAIRMONT       PTCLDY    12   5  73 S10       30.20S WCI  -1
GLENCOE        CLOUDY    16   9  71 SW3       30.23R
FARIBAULT      CLOUDY    14   5  67 SW5       30.24S WCI   6
OWATONNA       CLOUDY    14   3  62 S8        30.22F WCI   3
WASECA         CLOUDY    14   7  73 S9        30.24S WCI   2
ALBERT LEA     CLOUDY    12   3  67 SW5       30.23R WCI   4
$$
MNZ078>079-086>088-094>096-120200-
   Southeast Minnesota

CITY           SKY/WX    TMP DP  RH WIND       PRES   REMARKS
ROCHESTER      CLOUDY    11   3  70 SW8       30.22F WCI  -1
RED WING       CLOUDY    18   3  53 SW3       30.25S
STANTON        CLOUDY    16   5  60 SW3       30.23S
DODGE CENTER   CLOUDY    10   3  72 SW7       30.21S WCI   0
WINONA         CLOUDY    18   3  53 W3        30.29R
AUSTIN         CLOUDY    10   5  79 SW7       30.23S WCI   0
PRESTON        CLOUDY    10   1  68 W3        30.24R
$$
ABBREVIATIONS USED IN REMARKS
   TC - TEMPERATURES IN CELSIUS
  WCI - WIND CHILL INDEX
   HX - HEAT INDEX
  VSB - VISIBILITY
$$



USA.gov is the U.S. government's official web portal to all federal, state and local government web resources and services.